World > North America > United States > California

La Jolla, California Regional Weather

Lat: 32.85N, Lon: 117.27W
Wx Zone: CAZ043
Warning FLW WEATHER ALERT - (More Info. Click Here) Warning
Feedback

La Jolla, CA Regional Weather

Expires:201908241800;;143060
ASUS46 KSGX 241711
RWRSGX

SAN DIEGO HOURLY WEATHER ROUNDUP
NATIONAL WEATHER SERVICE SAN DIEGO CA
1000 AM PDT SAT AUG 24 2019

NOTE: "FAIR" INDICATES FEW OR NO CLOUDS BELOW 12,000 FEET WITH NO 
SIGNIFICANT WEATHER AND/OR OBSTRUCTIONS TO VISIBILITY.


CAZ042-043-060-061-PZZ750-775-241800-

GREATER SAN DIEGO AREA
  
CITY           SKY/WX    TMP DP  RH WIND       PRES   REMARKS
SAN DIEGO AP   MOSUNNY   74  65  73 W7        29.94S                  
NATIONAL CITY    N/A    N/A N/A N/A W3        29.93S                  
CHULA VISTA      N/A     76  67  73 W2        29.83S                  
BROWN FIELD    SUNNY     77  62  59 VRB3      29.93S                  
MIRAMAR MCAS   SUNNY     80  62  54 VRB5      29.93S                  
MONTGOMERY FLD SUNNY     76  61  59 CALM      29.93S                  
GILLESPIE FLD  SUNNY     79  59  50 CALM      29.93S                  

$$

NORTH SAN DIEGO COUNTY
  
CITY           SKY/WX    TMP DP  RH WIND       PRES   REMARKS
CAMP PENDLETON SUNNY     77  63  61 SW5       29.92S                  
OCEANSIDE AP   SUNNY     75  63  66 W7        29.92S                  
OCEANSIDE HBR    N/A     70  66  86 CALM      29.95S                  
VISTA            N/A     74  65  73 CALM      29.90S                  
CARLSBAD       SUNNY     72  63  73 W5        29.92S                  
DEL MAR          N/A     71  67  86 W1        29.94S                  
LA JOLLA SCRIP   N/A     68  64  86 W3        29.93R                  
FALLBROOK      FAIR      79  63  57 CALM      29.94S                  
ESCONDIDO        N/A     84  65  51 CALM      29.91S                  
SAN MARCOS       N/A     77  66  70 NW2       29.95S                  
POWAY            N/A     82  65  57 CALM      29.92F                  

$$

EAST SAN DIEGO COUNTY
  
CITY           SKY/WX    TMP DP  RH WIND       PRES   REMARKS
RAMONA         SUNNY     89  52  28 CALM      29.95F                  
LA MESA          N/A     74  64  69 CALM      29.87S                  
JAMUL            N/A     80  64  57 CALM      29.91S                  
DESCANSO N       N/A     85  49  28 SE2       29.84S                  
MT. LAGUNA OBS   N/A     81  47  29 E8        29.81S                  
CAMPO            N/A     93  35  13 E9        29.98S                  

$$

ORANGE COUNTY AND THE LOS ANGELES BASIN
  
CITY           SKY/WX    TMP DP  RH WIND       PRES   REMARKS
JOHN WAYNE AP  SUNNY     77  63  61 SW6       29.92S                  
LAGUNA BEACH     N/A     72  67  83 NW1       29.92R                  
LAKE FOREST FR   N/A     76  61  59 CALM      29.80S                  
HUNTINGTON BCH   N/A     74  68  80 SW3       29.93S                  
LOS ALAMITOS   MOSUNNY   77  55  46 CALM      29.92S HAZE             
FULLERTON      SUNNY     80  60  50 CALM      29.92S                  
LONG BEACH     SUNNY     79  60  52 CALM      29.93S                  
L.A. AP        SUNNY     77  64  64 W7        29.93S                  
L.A. DOWNTOWN  SUNNY     80  64  58 CALM      29.92S                  

$$

THE INLAND EMPIRE
  
CITY           SKY/WX    TMP DP  RH WIND       PRES   REMARKS
CORONA         SUNNY     79  64  60 CALM      29.94F                  
CHINO          SUNNY     82  59  45 CALM      29.95S                  
ONTARIO        SUNNY     82  57  42 VRB3      29.94F                  
SAN BERNARDINO SUNNY     84  50  30 CALM      29.96S                  
RIVERSIDE AP   SUNNY     82  60  47 CALM      29.94S                  
MORENO VALLEY    N/A     86  65  49 S2        28.09R                  
MARCH ARB      SUNNY     83  60  44 CALM      29.97R                  
HORSETHIEF CYN   N/A     83  55  36 CALM      29.92                   
PERRIS           N/A     83  62  48 CALM      29.98S                  
HEMET EAST       N/A     81  53  37 CALM      29.95R                  
FRENCH VALLEY  FAIR      82  55  39 CALM      29.97S                  
TEMECULA         N/A     77  61  58 N1        29.95S                  

$$

SAN BERNARDINO AND RIVERSIDE COUNTY MOUNTAINS
  
CITY           SKY/WX    TMP DP  RH WIND       PRES   REMARKS
BIG BEAR AP    SUNNY     72  30  21 SW6       30.29R                  
ANGELUS OAKS     N/A     71  46  41 CALM      29.85S                  

$$

SOUTHERN DESERT INCLUDING THE COACHELLA VALLEY
  
CITY           SKY/WX    TMP DP  RH WIND       PRES   REMARKS
PALM SPRINGS   SUNNY     92  69  47 E8        29.95R HX  97           
THOUSAND PALMS   N/A     91  71  53 SE7       29.89R HX  97           
PALM DESERT      N/A     93  73  52 E3        29.69F HX 101           
THERMAL        SUNNY     93  76  57 SE13      29.89R HX 105           
BORREGO AP     FAIR      88  73  62 SE5       29.94R HX  96           
BLYTHE         SUNNY     91  71  51 S12       29.95R HX  97           
IMPERIAL AP    PTSUNNY   91  76  61 S10       29.89S HX 103           
EL CENTRO NAS  PTSUNNY   91  74  57 SE9       29.92R HX 100           
YUMA AZ        MOSUNNY   91  73  55 S12       29.93S HX  99           
MEXICALI       PTSUNNY   90  73  58 SE12      29.92R HX  98           

$$

UPPER DESERT
  
CITY           SKY/WX    TMP DP  RH WIND       PRES   REMARKS
VICTORVILLE AP SUNNY    N/A N/A N/A CALM      30.05R                  
HESPERIA         N/A     87  49  27 W5        29.88S                  
APPLE VALLEY     N/A     87  57  35 N2        29.92R                  
PALMDALE       SUNNY     85  45  24 VRB3      30.03R                  
LANCASTER      SUNNY     84  48  28 CALM      30.02R                  
EDWARDS AFB    SUNNY     82  48  29 SW6       30.00R                  
DAGGETT        SUNNY     87  49  26 N3        30.00R                  
29 PALMS N     SUNNY     87  61  41 SE10      30.07S                  
NEEDLES        SUNNY     94  66  39 S13G20    29.96S HX  97           

$$

REGIONAL REPORTS
  
CITY           SKY/WX    TMP DP  RH WIND       PRES   REMARKS
SANTA BARBARA  SUNNY     71  63  75 S7        29.94R                  
SANDBERG         N/A    N/A N/A N/A MISG      30.15R                  
LAS VEGAS NV   SUNNY     91  42  18 VRB5      29.98S                  
PHOENIX AZ     MOSUNNY   91  70  49 VRB5      29.97S HX  96           
TIJUANA        SUNNY     77  63  61 NW3       29.95S                  
ENSENADA NW      N/A     69  32  25 SW7       29.89R                  

$$

OFFSHORE ISLANDS
  
CITY           SKY/WX    TMP DP  RH WIND       PRES   REMARKS
CATALINA ARPT  SUNNY     76  60  57 CALM      29.98R                  
SAN NICOLAS IS CLOUDY   N/A N/A N/A SE3       29.96R                  

$$

MARINE AND OFFSHORE BUOY REPORTS
  
STATION/POSITION SKY/WX   TEMP    WIND        PRES    VSBY  SWELL
                          AIR SEA DIR/SP/G                  HT/PER/DIR
                          (F)     (DEG/KT/KT) (MB)    (MI)  (FT/S/D)
TANNER BANKS               62 62  300/  4/  6 1014.3R         5/290/10
S CLEMENTE BASIN           65 67  240/  4/  6 1013.8R         3/200/16
SAN NICOLAS IS.               64                N/A           3/220/15
SO. S. ROSA ISLA           63 63  200/  4/  6 1014.8R         5/310/10
W. S. BARBARA CH                                N/A
M. S. BARBARA CH           65 66  260/  6/  6 1014.5R         3/260/ 8
S. MONICA BASIN            68     260/  6/  8 1014.1R         2/190/15
S PEDRO CHANNEL               70                N/A           2/210/15
OCEANSIDE OFFSHR              72                N/A           2/200/17
TORREY PINES OTR              71                N/A           2/210/15
SAN DIEGO BAY                 72              1013.0S
IMPERIAL BEACH                70                N/A           2/240/15
POINT LOMA SOUTH              72                N/A           3/210/14

$$

  

SKY/WX - Weather  TMP - Temperature  DP - Dew Point  RH - Relative Humidity
WIND - Wind Direction/Speed PRES - Barometric Pressure VSB - Visibility
WCI - Wind Chill Index E13G22 Wind - East Wind 13 mph/Gusts of 22 mph